Home > Weather > Foz do Iguaçu > Past weeks

Flag for Brazil Weather for the Past 2 Weeks in Foz do Iguaçu, Paraná, Brazil

Now
90 °F

Scattered clouds.


Feels Like: 98 °F
Forecast: 71 / 92 °F
Wind: 8 mph from North

Location: Foz Do Iguacu Aeroporto

Current Time: Feb 11, 2016 at 3:47:32 PM

Latest Report: Feb 11, 2016 at 3:00 PM


Visibility: N/A

Pressure: 29.86 "Hg

Humidity: 59%

Dew point: 73 °F

Location of Foz do IguaçuLocation

Historic Weather in Foz do Iguaçu — Graph

°F

Foz do Iguaçu Temperature Yesterday

Maximum temperature yesterday: 88 °F (at 3:00 PM)
Minimum temperature yesterday: 73 °F (at 12:00 AM)
Average temperature yesterday: 79 °F

High & Low Weather Summary for the Past Weeks

 TemperatureHumidityPressure
High99 °F (Jan 29, 4:00 PM)100% (Jan 30, 3:00 PM)30.04 "Hg (Jan 30, 3:00 PM)
Low36 °F (Feb 3, 7:00 PM)42% (Jan 29, 4:00 PM)29.74 "Hg (Jan 29, 6:00 PM)
Average79 °F81%29.91 "Hg
* Reported Jan 27 2:00 PM — Feb 11 2:00 PM, Foz do Iguaçu, Weather by CustomWeather, © 2016

Note: Actual official high and low records may vary slightly from our data, if they occured in-between our weather recording intervals... More about our weather records

Advertising

Foz do Iguaçu Weather History for the Previous 24 Hours

 ConditionsComfort  
Time TempWeatherWind HumidityBarometerVisibility
2:00 PM
Thu, Feb 11
88 °FScattered clouds.8 mph62%29.92 "HgN/A
1:00 PM88 °FBroken clouds.10 mph66%29.92 "Hg35 mi
12:00 PM86 °FPartly sunny.9 mph70%29.95 "HgN/A
11:00 AM86 °FPartly sunny.8 mph70%29.95 "HgN/A
10:00 AM82 °FPartly sunny.6 mph79%29.92 "HgN/A
9:00 AM79 °FPartly sunny.2 mph89%29.92 "HgN/A
8:00 AM75 °FScattered clouds.5 mph94%29.92 "HgN/A
7:00 AM75 °FPassing clouds.No wind94%29.89 "HgN/A
6:00 AM75 °FPassing clouds.5 mph94%29.89 "HgN/A
5:00 AM75 °FPassing clouds.2 mph94%29.89 "HgN/A
4:00 AM75 °FPassing clouds.2 mph94%29.89 "HgN/A
3:00 AM77 °FPassing clouds.3 mph94%29.89 "HgN/A
2:00 AM77 °FPassing clouds.3 mph94%29.92 "HgN/A
1:00 AM77 °FPassing clouds.7 mph94%29.92 "HgN/A
12:00 AM77 °FPassing clouds.No wind94%29.95 "HgN/A
11:00 PM
Wed, Feb 10
79 °FThunderstorms. Partly cloudy.3 mph89%29.95 "HgN/A
10:00 PM79 °FThunderstorms. Partly cloudy.3 mph89%29.95 "HgN/A
9:00 PM79 °FThunderstorms. Partly cloudy.3 mph89%29.92 "HgN/A
8:00 PM81 °FScattered showers. Scattered clouds.5 mph84%N/AN/A
7:00 PM81 °FScattered showers. Scattered clouds.6 mph84%29.89 "HgN/A
5:00 PM88 °FScattered showers. Scattered clouds.8 mph70%N/AN/A
4:00 PM88 °FScattered clouds.7 mph70%29.92 "HgN/A
3:00 PM88 °FPartly sunny.8 mph66%29.95 "HgN/A
Weather by CustomWeather, © 2016

See weather overviewHow to use our weather pages